Location: New Frontier Mobile Home Park
(32.8448°N, 116.9675°W)
Time: 22:48:16
(UTC+00:00)

ADEOS II - Pass Details

Date: 14 July 2020
Orbit: 799 x 801 km, 98.5° (Epoch: 05 August)

Event Time Altitude Azimuth Distance (km) Brightness Sun altitude
Rises 09:45:43 0° 17° (NNE) 3,312 6.4 -29.4°
Reaches altitude 10° 09:48:06 10° 22° (NNE) 2,378 5.5 -29.1°
Maximum altitude 09:53:16 58° 101° (E) 931 2.4 -28.6°
Enters shadow 09:53:17 58° 102° (ESE) 931 2.4 -28.6°
